This demonstration page uses our WeatherBlox Daily Observations layout. Learn more.

Left ArrowRight Arrow

Hourly Observations for December 9, 2021

Temp ( °F °C ) Dew Point ( °F °C ) Humidity (%) Winds ( mph kmh ) Pressure ( in mb ) Visibility ( mi km ) Precip ( " mm )
12:56 am 00:56 Clear 40 4.4 26 -3.3 58 58 SSW 9 15 29.47 998 10 16 0.00 0.00
1:56 am 01:56 Clear 39 3.9 27 -2.8 62 62 SW 8 13 29.48 998 10 16 0.00 0.00
2:56 am 02:56 Clear 38 3.3 27 -2.8 65 65 SW 9 15 29.47 998 10 16 0.00 0.00
3:56 am 03:56 Clear 38 3.3 27 -2.8 65 65 WSW 10 17 29.46 998 10 16 0.00 0.00
4:56 am 04:56 Clear 38 3.3 25 -3.9 60 60 WSW 13 20 29.49 999 10 16 0.00 0.00
5:56 am 05:56 Clear 37 2.8 24 -4.4 59 59 SW 8 13 29.51 999 10 16 0.00 0.00
6:56 am 06:56 Clear 44 6.7 25 -3.9 47 47 W 15 24 29.53 1000 10 16 0.00 0.00
7:56 am 07:56 Sunny 41 5 26 -3.3 55 55 WNW 13 20 29.56 1001 10 16 0.00 0.00
8:56 am 08:56 Sunny 44 6.7 27 -2.8 51 51 NW 13 20 29.62 1003 10 16 0.00 0.00
9:56 am 09:56 Sunny 48 8.9 29 -1.7 48 48 NW 13 20 29.68 1005 10 16 0.00 0.00
10:56 am 10:56 Sunny 50 10 31 -0.6 48 48 N 20 31 29.72 1006 10 16 0.00 0.00
11:56 am 11:56 Sunny 52 11.1 33 0.6 49 49 N 16 26 29.72 1006 10 16 0.00 0.00
12:56 pm 12:56 Sunny 53 11.7 32 0 45 45 N 14 22 29.72 1006 10 16 0.00 0.00
1:56 pm 13:56 Sunny 53 11.7 31 -0.6 43 43 N 13 20 29.74 1007 10 16 0.00 0.00
2:56 pm 14:56 Sunny 54 12.2 29 -1.7 38 38 NNE 15 24 29.71 1006 10 16 0.00 0.00
3:56 pm 15:56 Sunny 51 10.6 28 -2.2 41 41 NNE 14 22 29.73 1007 10 16 0.00 0.00
4:56 pm 16:56 Sunny 48 8.9 27 -2.8 44 44 NE 6 9 29.78 1008 10 16 0.00 0.00
5:56 pm 17:56 Clear 43 6.1 26 -3.3 51 51 ENE 8 13 29.80 1009 10 16 0.00 0.00
6:56 pm 18:56 Clear 41 5 26 -3.3 55 55 ENE 9 15 29.81 1010 10 16 0.00 0.00
7:56 pm 19:56 Clear 35 1.7 24 -4.4 64 64 NE 8 13 29.83 1010 10 16 0.00 0.00
8:56 pm 20:56 Clear 35 1.7 25 -3.9 67 67 ENE 9 15 29.80 1009 10 16 0.00 0.00
9:56 pm 21:56 Clear 35 1.7 25 -3.9 67 67 ENE 12 19 29.78 1008 10 16 0.00 0.00
10:56 pm 22:56 Clear 32 0 24 -4.4 73 73 E 8 13 29.78 1009 10 16 0.00 0.00
11:56 pm 23:56 Clear 33 0.6 25 -3.9 72 72 ENE 9 15 29.75 1008 10 16 0.00 0.00

Powered by AerisWeather